EW9027 Weather Reports


Display with metric or nautical units.
time (UTC)temp
F
wind
direction
speed
MPH
gust
MPH
rain 1hr
in
rain 24hr
in
rain mn
in
humidity
%
barometer
mb
20190119084629 19 101 0.0 1.0 0.00 0.00 0.00 85 1020.3
20190119083131 17 22 0.0 2.0 0.00 0.00 0.00 86 1020.2
20190119081624 17 148 0.0 0.0 0.00 0.00 0.00 87 1020.3
20190119080117 16 224 0.0 1.0 0.00 0.00 0.00 88 1020.1
20190119074625 14 203 0.0 1.0 0.00 0.00 0.00 91 1020.1
20190119073121 13 210 0.0 1.0 0.00 0.00 0.00 92 1020.0
20190119071634 12 224 0.0 1.0 0.00 0.00 0.00 92 1020.0
20190119070130 12 203 0.0 1.0 0.00 0.00 0.00 92 1019.9
20190119064613 11 211 0.0 0.0 0.00 0.00 0.00 92 1019.9
20190119061557 12 211 0.0 0.0 0.00 0.00 0.00 91 1019.7
20190119060109 12 211 0.0 0.0 0.00 0.00 0.00 91 1019.7
20190119054621 12 229 0.0 3.0 0.00 0.00 0.00 91 1019.8
20190119053113 12 210 0.0 1.0 0.00 0.00 0.00 92 1019.6
20190119051558 12 179 0.0 0.0 0.00 0.00 0.00 92 1019.5
20190119050052 12 179 0.0 1.0 0.00 0.00 0.00 92 1019.6
20190119044546 12 217 0.0 0.0 0.00 0.00 0.00 92 1019.5
20190119043043 12 219 0.0 1.0 0.00 0.00 0.00 91 1019.5
20190119041546 12 217 0.0 1.0 0.00 0.00 0.00 91 1019.6
20190119040039 12 210 0.0 1.0 0.00 0.00 0.00 91 1019.6
20190119034653 12 210 0.0 1.0 0.00 0.00 0.00 92 1019.6
20190119033039 13 213 0.0 1.0 0.00 0.00 0.00 92 1019.8
20190119031600 12 214 0.0 0.0 0.00 0.00 0.00 92 1019.7
20190119030030 13 214 0.0 1.0 0.00 0.00 0.00 91 1019.8
20190119024558 13 214 0.0 1.0 0.00 0.00 0.00 91 1019.7
20190119023112 13 200 0.0 1.0 0.00 0.00 0.00 91 1019.8
20190119021517 13 210 0.0 1.0 0.00 0.00 0.00 91 1019.9
20190119020028 13 251 0.0 2.0 0.00 0.00 0.00 91 1020.0
20190119014520 13 262 0.0 1.0 0.00 0.00 0.00 91 1020.1
20190119013031 13 213 0.0 2.0 0.00 0.00 0.00 91 1020.2
20190119011519 13 212 0.0 1.0 0.00 0.00 0.00 91 1020.2
20190119010044 14 219 0.0 2.0 0.00 0.00 0.00 92 1020.1
20190119004512 14 148 0.0 0.0 0.00 0.00 0.00 92 1019.9
20190118230123 15 271 0.0 1.0 0.00 0.01 0.01 92 1020.2
20190118224710 16 181 0.0 3.0 0.00 0.01 0.01 91 1020.2
20190118223139 16 201 0.0 1.0 0.00 0.01 0.01 92 1020.1
20190118221658 16 203 0.0 1.0 0.00 0.01 0.01 91 1020.0
20190118220104 17 216 0.0 1.0 0.00 0.01 0.01 91 1019.9
20190118214630 17 186 0.0 2.0 0.00 0.01 0.01 92 1019.8
20190118213202 17 202 0.0 0.0 0.00 0.01 0.01 91 1019.7
20190118211554 18 202 0.0 1.0 0.00 0.01 0.01 91 1019.6
20190118210131 18 194 0.0 2.0 0.00 0.01 0.01 91 1019.6
20190118204620 19 219 0.0 1.0 0.00 0.01 0.01 91 1019.6
20190118203104 19 235 0.0 2.0 0.00 0.01 0.01 90 1019.5
20190118201544 19 238 0.0 3.0 0.00 0.01 0.01 90 1019.4
20190118200045 20 209 0.0 1.0 0.00 0.01 0.01 89 1019.1
20190118194558 20 229 0.0 4.0 0.00 0.01 0.01 89 1019.1
20190118193057 21 212 0.0 2.0 0.00 0.01 0.01 89 1019.1
20190118191600 21 215 0.0 2.0 0.00 0.01 0.01 89 1019.0
20190118190124 21 23 0.0 1.0 0.00 0.01 0.01 89 1019.1
20190118184535 22 23 0.0 0.0 0.00 0.01 0.01 88 1019.1
20190118183020 22 23 0.0 0.0 0.00 0.01 0.01 87 1019.0
20190118181514 23 23 0.0 1.0 0.00 0.01 0.01 86 1018.9
20190118180022 23 23 0.0 1.0 0.00 0.01 0.01 86 1018.7
20190118174508 24 23 0.0 1.0 0.00 0.01 0.01 85 1018.5
20190118173005 24 21 0.0 1.0 0.00 0.01 0.01 84 1018.5
20190118171502 24 22 0.0 1.0 0.00 0.01 0.01 84 1018.2
20190118170132 25 327 0.0 1.0 0.00 0.01 0.01 83 1018.1
20190118164630 26 266 0.0 1.0 0.00 0.01 0.01 82 1017.9
20190118163216 26 331 0.0 1.0 0.00 0.01 0.01 80 1017.8
20190118161633 27 57 0.0 3.0 0.00 0.01 0.01 80 1017.5
20190118160146 27 302 0.0 6.0 0.00 0.01 0.01 82 1017.3
20190118154618 27 323 0.0 4.0 0.00 0.01 0.01 81 1017.1
20190118153113 28 1 1.0 6.0 0.00 0.01 0.01 81 1016.9
20190118151630 28 14 0.0 7.0 0.00 0.01 0.01 80 1017.0
20190118150127 29 2 1.0 4.0 0.00 0.01 0.01 79 1016.7
20190118144652 30 276 2.0 8.0 0.00 0.01 0.01 77 1016.5
20190118143054 30 321 0.0 5.0 0.00 0.01 0.01 76 1016.2
20190118141538 30 309 0.0 7.0 0.00 0.01 0.01 72 1016.0
20190118140130 31 343 2.0 6.0 0.00 0.01 0.01 73 1015.7
20190118134541 32 39 2.0 9.0 0.00 0.01 0.01 70 1015.6
20190118133114 34 329 1.0 7.0 0.00 0.01 0.01 65 1015.5
20190118131527 34 4 1.0 4.0 0.00 0.01 0.01 65 1015.4
20190118130007 33 305 1.0 5.0 0.00 0.01 0.01 67 1015.2
20190118124515 31 288 0.0 7.0 0.00 0.01 0.01 69 1015.1
20190118123004 31 304 1.0 6.0 0.00 0.01 0.01 68 1015.1
20190118121502 31 255 2.0 6.0 0.00 0.01 0.01 65 1015.0
20190118120214 31 296 1.0 6.0 0.00 0.01 0.01 67 1015.0
20190118114840 31 286 1.0 6.0 0.00 0.01 0.01 70 1014.9
20190118113228 31 196 4.0 9.0 0.00 0.01 0.01 70 1014.8
20190118111615 32 140 0.0 6.0 0.00 0.01 0.01 72 1014.6
20190118110306 31 31 1.0 5.0 0.00 0.01 0.01 74 1014.5
20190118104627 31 57 2.0 7.0 0.00 0.01 0.01 74 1014.4
20190118103132 32 280 2.0 10.0 0.00 0.01 0.01 75 1014.1
20190118101613 32 272 1.0 10.0 0.00 0.01 0.01 76 1014.0
20190118100134 32 294 2.0 7.0 0.00 0.01 0.01 76 1013.9
20190118094648 32 268 0.0 7.0 0.00 0.01 0.01 78 1013.8
20190118093140 32 47 1.0 8.0 0.00 0.01 0.01 78 1013.7
20190118091627 31 253 0.0 7.0 0.00 0.01 0.01 81 1013.4
20190118090058 31 244 0.0 2.0 0.00 0.01 0.01 86 1013.0